Regional Weather Roundup
Issued by NWS

Home | Current Version | Previous Version | Text Only | Print | Product List | Glossary On
Versions: 1 2 3 4 5 6 7 8 9 10 11 12 13 14 15 16 17 18 19 20 21 22 23 24 25 26 27 28 29 30 31 32 33 34 35 36 37 38 39 40 41 42 43 44 45 46 47 48 49 50
000
ASUS44 KLUB 210810
RWRTX
WEST TEXAS WEATHER ROUNDUP
NATIONAL WEATHER SERVICE LUBBOCK TX
300 AM CDT MON APR 21 2014

NOTE: "FAIR" INDICATES FEW OR NO CLOUDS BELOW 12,000 FEET WITH NO
SIGNIFICANT WEATHER AND/OR OBSTRUCTIONS TO VISIBILITY.

TXZ004-006>008-010-012-014-016-OKZ002-210900-
TEXAS PANHANDLE/OKLAHOMA PANHANDLE

CITY           SKY/WX    TMP DP  RH WIND       PRES   REMARKS
AMARILLO       FOG       49  48  97 S3        30.01S VSB 1/4
BORGER         CLOUDY    56  54  93 SW6       29.99F FOG
CANADIAN       CLOUDY    60  59  96 SW3       29.97S
DALHART        CLEAR     53  43  68 NW10      30.04S
DUMAS          CLEAR     49  45  84 W10       30.01F
GUYMON         CLOUDY    58  55  90 SW10      29.99F FOG
HEREFORD       CLEAR     46  41  82 W3        30.03S
PAMPA          CLOUDY    56  55  96 S9        29.99F FOG
PERRYTON       CLOUDY    56  56  98 S13       29.98F
$$

TXZ026-029-035-045-048-210900-
SOUTHERN PANHANDLE/SOUTH PLAINS/ROLLING PLAINS

CITY           SKY/WX    TMP DP  RH WIND       PRES   REMARKS
CHILDRESS      CLOUDY    62  62 100 S14       29.94F
SEMINOLE       CLEAR     59  56  91 SW9       30.03F
LUBBOCK        CLEAR     54  50  86 S6        30.00S
PLAINVIEW      CLEAR     55  48  79 N5        29.99F
SNYDER         CLEAR     60  58  94 S7        30.00F
$$

TXZ052-054-060>062-072-078-127-140-154-169-210900-
PERMIAN BASIN/CONCHO VALLEY/BIG COUNTRY/EDWARDS PLATEAU

CITY           SKY/WX    TMP DP  RH WIND       PRES   REMARKS
ABILENE        MOCLDY    66  61  84 S14G23    29.98F
BIG SPRING     CLOUDY    64  61  90 S15       30.03S
BRADY          CLOUDY    64  64 100 S9        30.02F
BROWNWOOD      CLOUDY    64  64 100 S6        30.01F
JUNCTION       CLOUDY    67  62  84 S7        30.04F
MIDLAND        PTCLDY    63  61  93 SW15      30.02F
ODESSA         CLOUDY    63  61  93 S15G22    30.03S FOG
SAN ANGELO     MOCLDY    66  62  87 S14       30.00F
SONORA         CLOUDY    66  64  94 S13       30.05F
SWEETWATER     CLEAR     64  64 100 S16       30.02S
WINK           CLEAR     60  58  92 SE7       30.01S
$$

TXZ055-058-074-075-080-082-210900-
FAR WEST/SOUTHWEST MOUNTAINS/TRANS PECOS

CITY           SKY/WX    TMP DP  RH WIND       PRES   REMARKS
ALPINE         CLEAR     52  45  79 W8        30.18F
DRYDEN           N/A     70  65  84 SE7       30.03F
EL PASO        CLEAR     62  43  49 E6        30.09S
FORT STOCKTON  CLEAR     60  58  92 S6        30.05S
GUADALUPE PASS CLEAR     59  35  40 SW9       30.17S
MARFA          CLEAR     48  36  61 N6        30.17S
PECOS          CLEAR     57  47  71 SW5       30.02S
PRESIDIO       FAIR      69  57  66 NE7       30.05S
$$

TXZ014-016-019-021>030-083-210900
TEXAS TECH WEST TEXAS MESONET/TEXAS PANHANDLE/NORTHERN SOUTH PLAINS

CITY           SKY/WX    TMP DP  RH WIND       PRES   REMARKS
ABERNATHY 5ENE   N/A     54  47  77 E5        30.01S
AMARILLO 9NNE    N/A     51  51  99 CALM      30.00S
AMARILLO 7SSE    N/A     46  45  99 NW2       30.02S
AMHERST 1NE      N/A     49  46  87 W9        30.02F
BOOTLEG 11WNW    N/A     49  41  74 W12       30.08F
CANADIAN 6E      N/A     59  58  96 SW6       29.96S
CAPROCK CYN SP   N/A     55  55  98 NW5       29.97S
CHILDRESS 2NNE   N/A     61  61  97 S8        29.93F
CLARENDON 2WSW   N/A     58  56  92 N2        29.98F
CLAUDE 12SW      N/A     49  49 100 N2        30.00S
DIMMITT 2NE      N/A     50  44  78 W10       30.02F
FLOYDADA 2NNE    N/A     50  45  83 W6        29.99F
FRIONA 2NE       N/A     48  42  79 W10       30.05S
GOODLETT 3W      N/A     62  60  93 S8        29.92F
HART 3N          N/A     50  44  80 NW12      30.01F
HEREFORD 2NW     N/A     47  41  81 W8        30.02F
MCLEAN 1E        N/A     57  56  97 S6        29.96F
MEMPHIS 1NE      N/A     60  58  95 N3        29.96S
MULESHOE 2SSW    N/A     48  45  90 W5        30.04S
OLTON 6S         N/A     51  46  81 W13       30.00F
PALO DURO SP     N/A     49  47  93 W7        30.01F
PAMPA 2E         N/A     56  56  98 S8        29.99F
PLAINVIEW 1S     N/A     53  47  82 NW2       30.00S
SILVERTON 7ESE   N/A     42  42  99 W6        29.99S
TULIA 2ENE       N/A     50  45  81 W9        30.00S
TURKEY 2WSW      N/A     59  57  94 NW2       29.95F
UMBARGER 3NNE    N/A     45  42  90 W6        30.03R
$$

TXZ033>036-039>041-045>048-210900
TEXAS TECH WEST TEXAS MESONET/SOUTH PLAINS

CITY           SKY/WX    TMP DP  RH WIND       PRES   REMARKS
AIKEN 3WSW       N/A     48  45  88 S3        30.01S
ANDREWS 2NE      N/A     62  57  86 SW12      30.02F
BROWNFIELD 2S    N/A     56  47  70 SW9       30.01F
DENVR CTY 7WNW   N/A     54  45  69 NW9       30.03S
GAIL 2ESE        N/A     61  58  89 SW7       29.99S
LAMESA 2SE       N/A     57  56  94 SW7       30.01F
LEVELLAND 4S     N/A     50  42  73 W6        30.02S
LUBBOCK 3WNW     N/A     55  50  81 S3        30.01S
MORTON 1ENE      N/A     52  45  78 W7        30.03S
ODONNELL 1N      N/A     56  54  91 W8        30.01F
PLAINS 3N        N/A     53  45  74 NW6       30.03S
RALLS 1SE        N/A     51  46  83 W3        30.00F
REESE CENTER     N/A     51  46  84 W5        30.00F
SEAGRAVES 1SW    N/A     53  47  80 NW8       30.04R
SEMINOLE 2NNE    N/A     60  55  85 SW9       30.02S
SLATON 2NE       N/A     57  52  84 SW8       30.00S
SNYDER 3E        N/A     60  58  94 S8        29.99S
SUNDOWN 8SW      N/A     52  43  72 NW7       30.02F
TAHOKA 3NNE      N/A     58  54  87 SW8       30.00F
WOLFFORTH 6SSW   N/A     55  49  81 SW6       30.02S
$$

TXZ031-032-036>038-042>044-210900-
TEXAS TECH WEST TEXAS MESONET/ROLLING PLAINS

CITY           SKY/WX    TMP DP  RH WIND       PRES   REMARKS
ASPERMONT 3NE    N/A     64  61  92 S5        29.97S
FLUVANNA 3WNW    N/A     62  57  86 S9        30.00S
GRAHAM 5SSW      N/A     61  57  87 SW3       30.01S
GUTHRIE 10WSW    N/A     61  59  95 S9        29.95F
HASKELL 1NW      N/A     66  62  87 S9        29.96F
JAYTON 1SSE      N/A     61  58  92 SW7       29.97S
KNOX CITY 3NW    N/A     66  61  85 S9        29.95F
LK A HENRY 1NW   N/A     63  59  87 SW8       29.98S
NORTHFIELD 1S    N/A     60  60  97 S6        29.93F
ODELL 4ENE       N/A     63  62  97 SE9       29.95S
PADUCAH 10SW     N/A     62  61  95 S12       29.93F
POST 1NE         N/A     61  57  85 SW7       29.98F
RRING SPRGS 3N   N/A     60  57  92 S7        29.96F
SEYMOUR 3NW      N/A     65  62  90 S8        29.95F
SPUR 1W          N/A     59  55  86 SW6       29.96F
WEINERT 2NNE     N/A     65  62  90 S9        29.96F
WHITE RVR 6NE    N/A     61  56  84 SW8       29.97F
$$

TXZ052-054-060>062-072-078-127-140-154-169-210900-
TEXAS TECH WEST TEXAS MESONET/PERMIAN BASIN/
CONCHO VALLEY/BIG COUNTRY/EDWARDS PLATEAU

CITY           SKY/WX    TMP DP  RH WIND       PRES   REMARKS
COYANOSA 2N      N/A     60  56  88 S7        30.01F
JUNCTION 1SSW    N/A     67  62  85 S7        30.04F
MERTZON 3NNE     N/A     66  62  86 S14       30.02F
SAN ANGELO 7NW   N/A     66  61  83 S7        30.02F
STRLNG CT 4WSW   N/A     64  61  88 S16       30.01F
ST LAWRNCE 5SW   N/A     63  61  93 S16       30.02F
SWEETWATR 11SW   N/A     62  60  94 S13       30.01S
WALL 1E          N/A     64  60  87 SW6       30.01F
$$

TXZ055-058-074-075-080-082-210900-
TEXAS TECH WEST TEXAS MESONET/FAR WEST/SOUTHWEST MOUNTAINS/TRANS PECOS

CITY           SKY/WX    TMP DP  RH WIND       PRES   REMARKS
PRSMN GAP BBNP   N/A     66  61  84 N9        30.06S
GUADLPE MTN NP   N/A     61  32  33 NW16      30.17S
$$



USA.gov is the U.S. government's official web portal to all federal, state and local government web resources and services.